Location: Elma
(49.8670°N, 95.9170°W)
Time: 21:13:32
(UTC-05:00)

ISS - Pass Details

Date: 01 April 2019
Orbit: 408 x 410 km, 51.6° (Epoch: 21 April)

Event Time Altitude Azimuth Distance (km) Brightness Sun altitude
Rises 20:54:26 0° 284° (WNW) 2,339 2.2 -10.0°
Reaches altitude 10° 20:56:31 10° 286° (WNW) 1,476 0.6 -10.4°
Maximum altitude 20:59:50 74° 11° (N) 429 -3.7 -10.9°
Enters shadow 21:02:12 18° 96° (E) 1,098 -2.2 -11.2°
